User: anonymous   Login
Location: Natural Bridges National Monument
(37.6093°N, 109.9767°W)
Time: 17:39:17
(UTC-07:00)
Language:

USA 32 - Orbit

View from above orbital plane
View from above orbital plane
View from above satellite
View from above satellite

Ground track
Ground track

The orbit data is extracted from the following two-line orbital elements,

1 19460U 88078A   17333.25271009 0.00000050  00000-0  18141-4 0    01
2 19460  84.9862 126.2121 0004000  12.0105 347.9893 14.33432067    03
Epoch (UTC): 29 November 2017 06:03:54
Eccentricity: 0.0004000
inclination: 84.9862°
perigee height: 777 km
apogee height: 783 km
right ascension of ascending node: 126.2121°
argument of perigee: 12.0105°
revolutions per day: 14.33432067
mean anomaly at epoch: 347.9893°
orbit number at epoch: 0

The dashed part of the orbit path shows where the satellite is in the earth's shadow,  

DLR